Location: Rounton
(54.4000°N, 1.3500°W)
Time: 14:06:11
(UTC+01:00)

deb Delta 126 - Pass Details

Date: 07 July 2022
Orbit: 1120 x 1970 km, 101.5° (Epoch: 15 August)

Event Time Altitude Azimuth Distance (km) Brightness Sun altitude
Rises 03:44:15 0° 75° (ENE) 4,729 ? -6.2°
Reaches altitude 10° 03:47:52 10° 61° (ENE) 3,879 ? -5.9°
Maximum altitude 03:54:12 21° 18° (NNE) 3,274 ? -5.4°
Drops below altitude 10° 04:01:04 10° 336° (NNW) 4,268 ? -4.7°
Sets 04:05:17 0° 322° (NW) 5,342 ? -4.4°
